User: anonymous   Login
Location: Unspecified
(0.0000°N, 0.0000°E)
Time: 08:41:02
(UTC+00:00)
Language:

NNS O-25 - Orbit

View from above orbital plane
View from above orbital plane
View from above satellite
View from above satellite

Ground track
Ground track

The orbit data is extracted from the following two-line orbital elements,

1 19419U 88074A   18267.38367303 +.00000035 +00000-0 +44572-4 0  9992
2 19419 089.9944 018.3625 0095999 203.6639 220.4380 13.42196333472720
Epoch (UTC): 24 September 2018 09:12:29
Eccentricity: 0.0095999
inclination: 89.9944°
perigee height: 1029 km
apogee height: 1173 km
right ascension of ascending node: 18.3625°
argument of perigee: 203.6639°
revolutions per day: 13.42196333
mean anomaly at epoch: 220.4380°
orbit number at epoch: 47272

The dashed part of the orbit path shows where the satellite is in the earth's shadow,  

DLR